User: anonymous   Login
Location: Nag� el Ma?a??a
(24.0667°N, 32.8833°E)
Time: 08:04:51
(UTC+00:00)
Language:

Meteor 1-27 Rocket - Orbit

View from above orbital plane
View from above orbital plane
View from above satellite
View from above satellite

Ground track
Ground track

The orbit data is extracted from the following two-line orbital elements,

1 09904U 77024B   21339.78449224  .00000228  00000-0  12747-3 0  9996
2 09904  81.2619 352.2503 0055288  49.9166 310.6831 14.06916428292123
Epoch (UTC): 05 December 2021 18:49:40
Eccentricity: 0.0055288
inclination: 81.2619°
perigee height: 830 km
apogee height: 910 km
right ascension of ascending node: 352.2503°
argument of perigee: 49.9166°
revolutions per day: 14.06916428
mean anomaly at epoch: 310.6831°
orbit number at epoch: 29212

The dashed part of the orbit path shows where the satellite is in the earth's shadow,  

DLR